Location: Ahausen
(50.4985°N, 8.2722°E)
Time: 11:36:45
(UTC+00:00)

Meteor 1-21 - Pass Details

Date: 18 September 2020
Orbit: 845 x 887 km, 81.2° (Epoch: 30 October)

Event Time Altitude Azimuth Distance (km) Brightness Sun altitude
Rises 18:12:05 0° 347° (NNW) 3,435 7.7 -7.0°
Reaches altitude 10° 18:14:31 10° 349° (NNW) 2,490 7.0 -7.3°
Maximum altitude 18:20:11 84° 78° (ENE) 859 4.2 -8.2°
Drops below altitude 10° 18:25:47 10° 167° (SSE) 2,463 6.4 -9.1°
Sets 18:28:11 0° 168° (SSE) 3,394 7.1 -9.5°
